This is the latest recevied weather packets stored in our database for station/object 9M2SAR-10. If no packets are shown the sender has not sent any weather packets the latest 10 day(s).
| Time | Temp. | Humidity | Pressure | Rain* | Wind** | Luminosity | Snow |
|---|---|---|---|---|---|---|---|
| 1777815095 | 28.89° C | 100% | 1009.8 hPa | - | - | - | - |
| 1777814195 | 28.89° C | 100% | 1009.2 hPa | - | - | - | - |
| 1777813295 | 28.33° C | 100% | 1009.3 hPa | - | - | - | - |
| 1777812395 | 30° C | 100% | 1009 hPa | - | - | - | - |
| 1777811495 | 31.11° C | 100% | 1008.5 hPa | - | - | - | - |
| 1777810594 | 31.67° C | 100% | 1008 hPa | - | - | - | - |
| 1777809694 | 31.11° C | 100% | 1008 hPa | - | - | - | - |
| 1777808794 | 31.67° C | 100% | 1007.8 hPa | - | - | - | - |
| 1777807894 | 32.22° C | 100% | 1007.2 hPa | - | - | - | - |
| 1777806994 | 32.22° C | 100% | 1007.1 hPa | - | - | - | - |
| 1777806094 | 32.78° C | 100% | 1007.2 hPa | - | - | - | - |
| 1777805194 | 33.33° C | 100% | 1007.1 hPa | - | - | - | - |
| 1777804294 | 33.33° C | 100% | 1006.6 hPa | - | - | - | - |
| 1777803394 | 33.89° C | 100% | 1006.3 hPa | - | - | - | - |
| 1777802494 | 33.89° C | 100% | 1006.5 hPa | - | - | - | - |
| 1777801594 | 34.44° C | 100% | 1006.1 hPa | - | - | - | - |
| 1777800694 | 35° C | 100% | 1006.1 hPa | - | - | - | - |
| 1777797993 | 34.44° C | 100% | 1005.6 hPa | - | - | - | - |
| 1777797093 | 33.89° C | 100% | 1005.8 hPa | - | - | - | - |
| 1777796193 | 33.89° C | 100% | 1006 hPa | - | - | - | - |
| 1777795293 | 33.89° C | 100% | 1006.2 hPa | - | - | - | - |
| 1777794393 | 33.33° C | 100% | 1006.6 hPa | - | - | - | - |
| 1777793493 | 33.89° C | 100% | 1007.3 hPa | - | - | - | - |
| 1777792593 | 35° C | 100% | 1007.4 hPa | - | - | - | - |
| 1777791693 | 36.11° C | 100% | 1007.7 hPa | - | - | - | - |
* Rain since midnight (hover to see other rain measurements)
** Current wind speed in m/s (hover to see current wind gust speed)